Location: Bodest
(46.3000°N, 22.5667°E)
Time: 01:20:56
(UTC+00:00)

FENGYUN 1C DEB - Pass Details

Date: 11 April 2023
Orbit: 806 x 916 km, 98.8° (Epoch: 29 May)

Event Time Altitude Azimuth Distance (km) Brightness Sun altitude
Rises 18:41:42 0° 189° (S) 3,525 ? -15.3°
Reaches altitude 10° 18:44:20 10° 198° (SSW) 2,578 ? -15.7°
Maximum altitude 18:49:33 35° 264° (W) 1,400 ? -16.4°
Drops below altitude 10° 18:54:42 10° 329° (NNW) 2,536 ? -17.2°
Sets 18:57:18 0° 338° (NNW) 3,461 ? -17.6°
